When you browse on this site, cookies collect data to enhance your experience and personalize the content and advertising you see.
Visit our Privacy Policy to learn more. By continuing to use the site, you agree to this use of cookies and data.
  • en France
  • Liste des pays
  • À 7 jours
  • Température de l'eau
  • Carte satellitaire
  • Carte météo
  • Widgets météo
  • user-avatar
    Se connecter

    Météo par heure à Mazari Sharif

    Ce jour, 19 Février, Mardi

    Heure Température Précipitation Vent Pression Humidité
    00:00 0°C° 0 mm 3 m/s 651 mmHg 78%
    01:00 0°C° 0 mm 3 m/s 651 mmHg 78%
    02:00 -1°C° 0 mm 3 m/s 650 mmHg 73%
    03:00 -1°C° 0 mm 3 m/s 650 mmHg 69%
    04:00 -1°C° 0 mm 3 m/s 649 mmHg 66%
    05:00 -1°C° 0 mm 3 m/s 649 mmHg 60%
    06:00 -1°C° 0 mm 2 m/s 649 mmHg 55%
    07:00 -1°C° 0 mm 2 m/s 649 mmHg 50%
    08:00 +2°C° 0 mm 2 m/s 649 mmHg 45%
    09:00 +4°C° 0 mm 2 m/s 650 mmHg 40%
    10:00 +6°C° 0 mm 2 m/s 650 mmHg 37%
    11:00 +7°C° 0 mm 2 m/s 650 mmHg 38%
    12:00 +8°C° 0 mm 2 m/s 650 mmHg 39%
    13:00 +9°C° 0 mm 1 m/s 649 mmHg 40%
    14:00 +9°C° 0 mm 1 m/s 650 mmHg 38%
    15:00 +9°C° 0 mm 1 m/s 650 mmHg 37%
    16:00 +9°C° 0 mm 1 m/s 650 mmHg 36%
    17:00 +8°C° 0 mm 1 m/s 650 mmHg 39%
    18:00 +7°C° 0 mm 2 m/s 651 mmHg 43%
    19:00 +6°C° 0 mm 2 m/s 651 mmHg 46%
    20:00 +6°C° 0 mm 1 m/s 651 mmHg 48%
    21:00 +6°C° 0 mm 1 m/s 651 mmHg 50%
    22:00 +6°C° 0 mm 1 m/s 651 mmHg 52%
    23:00 +5°C° 0 mm 1 m/s 651 mmHg 55%

    Demain, 20 Février, Mercredi

    Heure Température Précipitation Vent Pression Humidité
    00:00 +4°C° 0 mm 0 m/s 651 mmHg 58%
    01:00 +3°C° 0 mm 0 m/s 651 mmHg 61%
    02:00 +4°C° 0.1 mm 1 m/s 651 mmHg 64%
    03:00 +3°C° 0.1 mm 2 m/s 652 mmHg 67%
    04:00 +1°C° 0.1 mm 3 m/s 652 mmHg 70%
    05:00 +1°C° 0.1 mm 3 m/s 652 mmHg 76%
    06:00 -1°C° 0.1 mm 4 m/s 653 mmHg 82%
    07:00 -1°C° 0.1 mm 4 m/s 653 mmHg 87%
    08:00 -2°C° 0.2 mm 4 m/s 653 mmHg 86%
    09:00 -2°C° 0.2 mm 5 m/s 654 mmHg 85%
    10:00 -2°C° 0.2 mm 5 m/s 654 mmHg 84%
    11:00 -2°C° 0.4 mm 5 m/s 654 mmHg 83%
    12:00 -2°C° 0.4 mm 5 m/s 654 mmHg 83%
    13:00 -4°C° 0.4 mm 5 m/s 654 mmHg 82%
    14:00 -4°C° 0.5 mm 5 m/s 655 mmHg 81%
    15:00 -3°C° 0.5 mm 4 m/s 655 mmHg 79%
    16:00 -4°C° 0.5 mm 4 m/s 655 mmHg 78%
    17:00 -4°C° 0.4 mm 4 m/s 656 mmHg 78%
    18:00 -4°C° 0.4 mm 3 m/s 656 mmHg 78%
    19:00 -4°C° 0.4 mm 3 m/s 657 mmHg 77%
    20:00 -5°C° 0.3 mm 3 m/s 658 mmHg 78%
    21:00 -5°C° 0.3 mm 3 m/s 658 mmHg 79%
    22:00 -4°C° 0.3 mm 2 m/s 658 mmHg 80%
    23:00 -4°C° 0.2 mm 2 m/s 658 mmHg 81%

    Après-demain, 21 Février, Jeudi

    Heure Température Précipitation Vent Pression Humidité
    00:00 -4°C° 0.2 mm 2 m/s 658 mmHg 82%
    01:00 -5°C° 0.2 mm 2 m/s 658 mmHg 83%
    02:00 -5°C° 0.2 mm 2 m/s 658 mmHg 83%
    03:00 -5°C° 0.2 mm 2 m/s 658 mmHg 83%
    04:00 -3°C° 0.2 mm 1 m/s 658 mmHg 83%
    05:00 -3°C° 0.1 mm 1 m/s 658 mmHg 82%
    06:00 -3°C° 0.1 mm 1 m/s 659 mmHg 81%
    07:00 -3°C° 0.1 mm 1 m/s 659 mmHg 80%
    08:00 -2°C° 0 mm 1 m/s 659 mmHg 75%
    09:00 -1°C° 0 mm 1 m/s 659 mmHg 69%
    10:00 -1°C° 0 mm 1 m/s 659 mmHg 64%
    11:00 -2°C° 0 mm 2 m/s 659 mmHg 61%
    12:00 -1°C° 0 mm 2 m/s 659 mmHg 59%
    13:00 +1°C° 0 mm 2 m/s 658 mmHg 56%
    14:00 +1°C° 0 mm 2 m/s 658 mmHg 57%
    15:00 +1°C° 0 mm 2 m/s 658 mmHg 57%
    16:00 +1°C° 0 mm 2 m/s 658 mmHg 57%
    17:00 +1°C° 0 mm 2 m/s 658 mmHg 62%
    18:00 -1°C° 0 mm 2 m/s 658 mmHg 66%
    19:00 -2°C° 0 mm 2 m/s 659 mmHg 71%
    20:00 -2°C° 0 mm 2 m/s 658 mmHg 72%
    21:00 -2°C° 0 mm 2 m/s 658 mmHg 73%
    22:00 -2°C° 0 mm 2 m/s 658 mmHg 74%
    23:00 -2°C° 0 mm 2 m/s 658 mmHg 71%

    22 Février, Vendredi

    Heure Température Précipitation Vent Pression Humidité
    00:00 -2°C° 0 mm 2 m/s 657 mmHg 68%
    01:00 -2°C° 0 mm 2 m/s 657 mmHg 66%
    02:00 -2°C° 0 mm 2 m/s 657 mmHg 62%
    03:00 -2°C° 0 mm 2 m/s 656 mmHg 58%
    04:00 -2°C° 0 mm 2 m/s 656 mmHg 55%
    05:00 -2°C° 0 mm 2 m/s 656 mmHg 52%
    06:00 -2°C° 0 mm 2 m/s 656 mmHg 49%
    07:00 -1°C° 0 mm 2 m/s 656 mmHg 46%
    08:00 +2°C° 0 mm 2 m/s 656 mmHg 43%
    09:00 +4°C° 0 mm 1 m/s 657 mmHg 39%
    10:00 +6°C° 0 mm 1 m/s 657 mmHg 36%
    11:00 +7°C° 0 mm 1 m/s 656 mmHg 36%
    12:00 +7°C° 0 mm 1 m/s 656 mmHg 37%
    13:00 +7°C° 0 mm 2 m/s 655 mmHg 37%
    14:00 +7°C° 0 mm 2 m/s 655 mmHg 37%
    15:00 +8°C° 0 mm 1 m/s 655 mmHg 37%
    16:00 +7°C° 0 mm 1 m/s 654 mmHg 37%
    17:00 +6°C° 0 mm 1 m/s 655 mmHg 39%
    18:00 +5°C° 0 mm 1 m/s 655 mmHg 42%
    19:00 +4°C° 0 mm 1 m/s 655 mmHg 44%
    20:00 +3°C° 0 mm 1 m/s 655 mmHg 42%
    21:00 +3°C° 0 mm 1 m/s 656 mmHg 40%
    22:00 +3°C° 0 mm 1 m/s 656 mmHg 37%
    23:00 +3°C° 0 mm 1 m/s 656 mmHg 37%

    23 Février, Samedi

    Heure Température Précipitation Vent Pression Humidité
    00:00 +2°C° 0 mm 1 m/s 656 mmHg 37%
    01:00 +2°C° 0 mm 1 m/s 656 mmHg 36%
    02:00 +2°C° 0 mm 1 m/s 655 mmHg 36%
    03:00 +2°C° 0 mm 1 m/s 655 mmHg 37%
    04:00 +2°C° 0 mm 1 m/s 655 mmHg 37%
    05:00 +2°C° 0 mm 1 m/s 655 mmHg 36%
    06:00 +2°C° 0 mm 1 m/s 656 mmHg 35%
    07:00 +2°C° 0 mm 1 m/s 656 mmHg 34%
    08:00 +4°C° 0 mm 1 m/s 656 mmHg 32%
    09:00 +6°C° 0 mm 1 m/s 657 mmHg 30%
    10:00 +6°C° 0 mm 0 m/s 657 mmHg 28%
    11:00 +8°C° 0 mm 1 m/s 656 mmHg 28%
    12:00 +8°C° 0 mm 1 m/s 656 mmHg 29%
    13:00 +8°C° 0 mm 1 m/s 656 mmHg 29%
    14:00 +8°C° 0 mm 1 m/s 656 mmHg 30%
    15:00 +8°C° 0 mm 1 m/s 655 mmHg 30%
    16:00 +8°C° 0 mm 1 m/s 655 mmHg 31%
    17:00 +7°C° 0 mm 1 m/s 655 mmHg 33%
    18:00 +5°C° 0 mm 1 m/s 655 mmHg 36%
    19:00 +4°C° 0 mm 1 m/s 655 mmHg 38%
    20:00 +4°C° 0 mm 1 m/s 656 mmHg 37%
    21:00 +4°C° 0 mm 1 m/s 656 mmHg 36%
    22:00 +3°C° 0 mm 1 m/s 656 mmHg 35%
    23:00 +3°C° 0 mm 1 m/s 655 mmHg 35%

    24 Février, Dimanche

    Heure Température Précipitation Vent Pression Humidité
    00:00 +3°C° 0 mm 1 m/s 655 mmHg 35%
    01:00 +2°C° 0 mm 1 m/s 655 mmHg 36%
    02:00 +2°C° 0 mm 1 m/s 655 mmHg 36%
    03:00 +2°C° 0 mm 1 m/s 655 mmHg 37%
    04:00 +2°C° 0 mm 1 m/s 655 mmHg 38%
    05:00 +2°C° 0 mm 1 m/s 655 mmHg 38%
    06:00 +2°C° 0 mm 1 m/s 655 mmHg 38%
    07:00 +2°C° 0 mm 1 m/s 656 mmHg 38%
    08:00 +4°C° 0 mm 1 m/s 656 mmHg 36%
    09:00 +5°C° 0 mm 1 m/s 657 mmHg 33%
    10:00 +7°C° 0 mm 1 m/s 657 mmHg 30%
    11:00 +7°C° 0 mm 1 m/s 657 mmHg 31%
    12:00 +8°C° 0 mm 1 m/s 656 mmHg 31%
    13:00 +8°C° 0 mm 1 m/s 656 mmHg 32%
    14:00 +8°C° 0 mm 1 m/s 656 mmHg 32%
    15:00 +8°C° 0 mm 1 m/s 656 mmHg 32%
    16:00 +8°C° 0 mm 1 m/s 656 mmHg 32%
    17:00 +6°C° 0 mm 1 m/s 656 mmHg 35%
    18:00 +5°C° 0 mm 1 m/s 656 mmHg 38%
    19:00 +4°C° 0 mm 1 m/s 657 mmHg 41%
    20:00 +4°C° 0 mm 1 m/s 657 mmHg 40%
    21:00 +4°C° 0 mm 1 m/s 657 mmHg 40%
    22:00 +3°C° 0 mm 1 m/s 657 mmHg 39%
    23:00 +3°C° 0 mm 1 m/s 657 mmHg 40%
    Voir plus